Time,TemperatureF,DewpointF,PressureIn,WindDirection,WindDirectionDegrees,WindSpeedMPH,WindSpeedGustMPH,Humidity,HourlyPrecipIn,Conditions,Clouds,dailyrainin,SoftwareType,DateUTC
2013-02-23 00:00:00,56.7,30.0,29.83,NW,312,4.0,6.3,36,-99.99,,,0.00,WeatherCatV1.12B45,2013-02-23 06:00:00,
2013-02-23 00:05:00,56.7,30.0,29.83,North,357,3.1,4.9,36,-99.99,,,0.00,WeatherCatV1.12B45,2013-02-23 06:05:00,
2013-02-23 00:10:00,56.7,30.0,29.83,North,350,3.6,8.1,36,-99.99,,,0.00,WeatherCatV1.12B45,2013-02-23 06:10:00,
2013-02-23 00:15:00,56.5,29.9,29.83,NW,313,0.0,7.6,36,-99.99,,,0.00,WeatherCatV1.12B45,2013-02-23 06:15:00,
2013-02-23 00:17:00,56.5,29.9,29.83,NNW,329,3.6,6.3,36,-99.99,,,0.00,WeatherCatV1.12B45,2013-02-23 06:17:00,
2013-02-23 00:18:00,56.5,29.9,29.83,North,0,3.1,4.0,36,-99.99,,,0.00,WeatherCatV1.12B45,2013-02-23 06:18:00,
2013-02-23 00:23:00,56.5,29.9,29.83,NNW,330,5.4,11.0,36,-99.99,,,0.00,WeatherCatV1.12B45,2013-02-23 06:23:00,
2013-02-23 00:28:00,56.3,29.7,29.83,NNE,27,7.6,8.1,36,-99.99,,,0.00,WeatherCatV1.12B45,2013-02-23 06:28:00,
2013-02-23 00:33:00,56.3,29.7,29.83,North,0,5.8,8.3,36,0.00,,,0.00,WeatherCatV1.12B45,2013-02-23 06:33:00,
2013-02-23 00:38:00,56.3,29.7,29.83,ENE,61,4.9,5.8,36,0.00,,,0.00,WeatherCatV1.12B45,2013-02-23 06:38:00,
2013-02-23 00:43:00,56.1,29.5,29.80,ENE,69,9.6,14.5,36,0.00,,,0.00,WeatherCatV1.12B45,2013-02-23 06:43:00,
2013-02-23 00:48:00,56.1,30.2,29.80,NNW,348,3.6,10.5,37,0.00,,,0.00,WeatherCatV1.12B45,2013-02-23 06:48:00,
2013-02-23 00:53:00,56.1,30.2,29.80,North,4,5.4,6.3,37,0.00,,,0.00,WeatherCatV1.12B45,2013-02-23 06:53:00,
2013-02-23 00:58:00,55.9,30.0,29.83,North,357,5.8,7.6,37,0.00,,,0.00,WeatherCatV1.12B45,2013-02-23 06:58:00,
2013-02-23 01:03:00,56.1,30.2,29.83,NNW,344,0.0,6.3,37,0.00,,,0.00,WeatherCatV1.12B45,2013-02-23 07:03:00,
2013-02-23 01:08:00,56.1,30.2,29.83,North,353,2.7,6.7,37,0.00,,,0.00,WeatherCatV1.12B45,2013-02-23 07:08:00,
2013-02-23 01:13:00,55.9,30.0,29.83,North,357,4.9,5.8,37,0.00,,,0.00,WeatherCatV1.12B45,2013-02-23 07:13:00,
2013-02-23 01:18:00,55.9,30.0,29.83,North,357,8.7,8.7,37,0.00,,,0.00,WeatherCatV1.12B45,2013-02-23 07:18:00,
2013-02-23 01:23:00,55.9,30.7,29.83,NNE,21,3.6,4.9,38,0.00,,,0.00,WeatherCatV1.12B45,2013-02-23 07:23:00,
2013-02-23 01:28:00,55.9,30.7,29.83,NNE,24,3.6,8.3,38,0.00,,,0.00,WeatherCatV1.12B45,2013-02-23 07:28:00,
2013-02-23 01:33:00,55.9,30.7,29.83,NW,315,6.7,8.3,38,0.00,,,0.00,WeatherCatV1.12B45,2013-02-23 07:33:00,
2013-02-23 01:38:00,55.9,30.7,29.83,NE,37,8.3,8.3,38,0.00,,,0.00,WeatherCatV1.12B45,2013-02-23 07:38:00,
2013-02-23 01:43:00,55.8,30.5,29.80,North,4,3.1,6.3,38,0.00,,,0.00,WeatherCatV1.12B45,2013-02-23 07:43:00,
2013-02-23 01:48:00,55.8,30.5,29.80,ENE,76,6.7,6.7,38,0.00,,,0.00,WeatherCatV1.12B45,2013-02-23 07:48:00,
2013-02-23 01:53:00,55.8,30.5,29.80,NNE,12,4.0,8.3,38,0.00,,,0.00,WeatherCatV1.12B45,2013-02-23 07:53:00,
2013-02-23 01:58:00,55.8,30.5,29.80,North,8,4.9,8.3,38,0.00,,,0.00,WeatherCatV1.12B45,2013-02-23 07:58:00,
2013-02-23 02:03:00,55.8,30.5,29.80,North,11,5.8,5.8,38,0.00,,,0.00,WeatherCatV1.12B45,2013-02-23 08:03:00,
2013-02-23 02:08:00,55.6,30.4,29.80,NNE,17,3.6,5.4,38,0.00,,,0.00,WeatherCatV1.12B45,2013-02-23 08:08:00,
2013-02-23 02:13:00,55.6,30.4,29.80,NNW,346,3.6,7.6,38,0.00,,,0.00,WeatherCatV1.12B45,2013-02-23 08:13:00,
2013-02-23 02:18:00,55.6,30.4,29.80,NE,43,5.4,5.8,38,0.00,,,0.00,WeatherCatV1.12B45,2013-02-23 08:18:00,
2013-02-23 02:23:00,55.6,30.4,29.80,NNE,25,3.1,5.8,38,0.00,,,0.00,WeatherCatV1.12B45,2013-02-23 08:23:00,
2013-02-23 02:28:00,55.4,30.2,29.80,NNW,328,2.7,8.7,38,0.00,,,0.00,WeatherCatV1.12B45,2013-02-23 08:28:00,
2013-02-23 02:33:00,55.4,30.2,29.80,ENE,71,2.7,7.2,38,0.00,,,0.00,WeatherCatV1.12B45,2013-02-23 08:33:00,
2013-02-23 02:38:00,55.2,30.1,29.80,NNE,26,5.4,5.4,38,0.00,,,0.00,WeatherCatV1.12B45,2013-02-23 08:38:00,
2013-02-23 02:43:00,55.2,30.1,29.80,ENE,70,5.8,6.3,38,0.00,,,0.00,WeatherCatV1.12B45,2013-02-23 08:43:00,
2013-02-23 02:48:00,55.0,29.9,29.80,North,357,6.3,8.7,38,0.00,,,0.00,WeatherCatV1.12B45,2013-02-23 08:48:00,
2013-02-23 02:53:00,54.9,29.7,29.80,NNE,14,5.4,5.4,38,0.00,,,0.00,WeatherCatV1.12B45,2013-02-23 08:53:00,
2013-02-23 02:58:00,54.9,29.7,29.80,NNE,23,6.3,6.3,38,0.00,,,0.00,WeatherCatV1.12B45,2013-02-23 08:58:00,
2013-02-23 03:03:00,54.7,30.2,29.80,NW,324,5.4,5.4,39,0.00,,,0.00,WeatherCatV1.12B45,2013-02-23 09:03:00,
2013-02-23 03:08:00,54.7,30.2,29.80,North,2,5.8,7.6,39,0.00,,,0.00,WeatherCatV1.12B45,2013-02-23 09:08:00,
2013-02-23 03:13:00,54.7,30.2,29.80,NNW,342,2.2,5.8,39,0.00,,,0.00,WeatherCatV1.12B45,2013-02-23 09:13:00,
2013-02-23 03:18:00,54.7,30.2,29.80,NW,325,3.1,6.3,39,0.00,,,0.00,WeatherCatV1.12B45,2013-02-23 09:18:00,
2013-02-23 03:23:00,54.7,30.2,29.80,NNE,12,2.7,4.9,39,0.00,,,0.00,WeatherCatV1.12B45,2013-02-23 09:23:00,
2013-02-23 03:28:00,54.5,30.1,29.80,North,9,2.2,6.7,39,0.00,,,0.00,WeatherCatV1.12B45,2013-02-23 09:28:00,
2013-02-23 03:33:00,54.5,30.1,29.80,NNE,25,0.0,4.0,39,0.00,,,0.00,WeatherCatV1.12B45,2013-02-23 09:33:00,
2013-02-23 03:38:00,54.5,30.1,29.80,NW,305,3.6,6.3,39,0.00,,,0.00,WeatherCatV1.12B45,2013-02-23 09:38:00,
2013-02-23 03:43:00,54.5,30.1,29.80,NW,324,4.0,4.0,39,0.00,,,0.00,WeatherCatV1.12B45,2013-02-23 09:43:00,
2013-02-23 03:48:00,54.5,30.1,29.80,North,7,4.0,4.0,39,0.00,,,0.00,WeatherCatV1.12B45,2013-02-23 09:48:00,
2013-02-23 03:53:00,54.5,30.1,29.80,NW,322,2.7,5.8,39,0.00,,,0.00,WeatherCatV1.12B45,2013-02-23 09:53:00,
2013-02-23 03:58:00,54.5,30.1,29.83,NNW,330,3.6,7.6,39,0.00,,,0.00,WeatherCatV1.12B45,2013-02-23 09:58:00,
2013-02-23 04:03:00,54.3,29.9,29.83,NNE,12,6.7,6.7,39,0.00,,,0.00,WeatherCatV1.12B45,2013-02-23 10:03:00,
2013-02-23 04:08:00,54.3,29.9,29.83,North,357,2.7,5.8,39,0.00,,,0.00,WeatherCatV1.12B45,2013-02-23 10:08:00,
2013-02-23 04:13:00,54.3,29.9,29.83,North,9,2.7,3.6,39,0.00,,,0.00,WeatherCatV1.12B45,2013-02-23 10:13:00,
2013-02-23 04:18:00,54.1,29.7,29.83,North,4,3.6,5.8,39,0.00,,,0.00,WeatherCatV1.12B45,2013-02-23 10:18:00,
2013-02-23 04:23:00,54.0,29.6,29.83,NNW,335,3.6,5.4,39,0.00,,,0.00,WeatherCatV1.12B45,2013-02-23 10:23:00,
2013-02-23 04:28:00,54.0,29.6,29.83,NNW,340,0.0,4.9,39,0.00,,,0.00,WeatherCatV1.12B45,2013-02-23 10:28:00,
2013-02-23 04:33:00,53.8,29.4,29.83,North,357,2.2,4.0,39,0.00,,,0.00,WeatherCatV1.12B45,2013-02-23 10:33:00,
2013-02-23 04:38:00,53.8,29.4,29.83,NW,321,3.1,5.8,39,0.00,,,0.00,WeatherCatV1.12B45,2013-02-23 10:38:00,
2013-02-23 04:43:00,54.0,29.6,29.83,NNW,333,0.0,5.4,39,0.00,,,0.00,WeatherCatV1.12B45,2013-02-23 10:43:00,
2013-02-23 04:48:00,53.8,29.4,29.83,North,0,0.0,0.0,39,0.00,,,0.00,WeatherCatV1.12B45,2013-02-23 10:48:00,
2013-02-23 04:53:00,53.8,29.4,29.83,North,0,5.4,5.4,39,0.00,,,0.00,WeatherCatV1.12B45,2013-02-23 10:53:00,
2013-02-23 04:58:00,53.8,29.4,29.83,NW,311,3.1,8.7,39,0.00,,,0.00,WeatherCatV1.12B45,2013-02-23 10:58:00,
2013-02-23 05:03:00,53.8,28.8,29.83,NNE,25,4.9,7.2,38,0.00,,,0.00,WeatherCatV1.12B45,2013-02-23 11:03:00,
2013-02-23 05:08:00,53.6,28.6,29.83,NNW,342,2.7,5.4,38,0.00,,,0.00,WeatherCatV1.12B45,2013-02-23 11:08:00,
2013-02-23 05:13:00,53.4,29.1,29.83,NNW,340,4.0,5.8,39,0.00,,,0.00,WeatherCatV1.12B45,2013-02-23 11:13:00,
2013-02-23 05:18:00,53.4,28.5,29.83,NNW,330,3.1,5.8,38,0.00,,,0.00,WeatherCatV1.12B45,2013-02-23 11:18:00,
2013-02-23 05:23:00,53.2,28.3,29.83,NNW,333,0.0,4.9,38,0.00,,,0.00,WeatherCatV1.12B45,2013-02-23 11:23:00,
2013-02-23 05:28:00,53.2,28.3,29.83,NW,307,3.6,5.8,38,0.00,,,0.00,WeatherCatV1.12B45,2013-02-23 11:28:00,
2013-02-23 05:33:00,53.1,28.1,29.83,NNE,16,4.9,7.2,38,0.00,,,0.00,WeatherCatV1.12B45,2013-02-23 11:33:00,
2013-02-23 05:38:00,52.9,28.0,29.83,WNW,301,4.0,4.0,38,0.00,,,0.00,WeatherCatV1.12B45,2013-02-23 11:38:00,
2013-02-23 05:43:00,52.9,28.6,29.83,NNE,29,4.0,6.7,39,0.00,,,0.00,WeatherCatV1.12B45,2013-02-23 11:43:00,
2013-02-23 05:48:00,52.9,28.6,29.83,WNW,294,8.7,8.7,39,0.00,,,0.00,WeatherCatV1.12B45,2013-02-23 11:48:00,
2013-02-23 05:53:00,52.7,27.8,29.83,North,4,0.0,8.3,38,0.00,,,0.00,WeatherCatV1.12B45,2013-02-23 11:53:00,
2013-02-23 05:58:00,52.7,27.8,29.83,North,0,5.8,7.6,38,0.00,,,0.00,WeatherCatV1.12B45,2013-02-23 11:58:00,
2013-02-23 06:03:00,52.5,27.7,29.83,North,9,3.6,4.9,38,0.00,,,0.00,WeatherCatV1.12B45,2013-02-23 12:03:00,
2013-02-23 06:08:00,52.5,27.7,29.83,North,2,4.0,6.3,38,0.00,,,0.00,WeatherCatV1.12B45,2013-02-23 12:08:00,
2013-02-23 06:13:00,52.5,27.7,29.85,NNE,14,2.7,3.6,38,0.00,,,0.00,WeatherCatV1.12B45,2013-02-23 12:13:00,
2013-02-23 06:18:00,52.5,27.7,29.85,North,353,3.6,6.3,38,0.00,,,0.00,WeatherCatV1.12B45,2013-02-23 12:18:00,
2013-02-23 06:23:00,52.5,27.7,29.85,NE,49,3.6,4.5,38,0.00,,,0.00,WeatherCatV1.12B45,2013-02-23 12:23:00,
2013-02-23 06:28:00,52.5,27.7,29.83,NNE,12,3.6,3.6,38,0.00,,,0.00,WeatherCatV1.12B45,2013-02-23 12:28:00,
2013-02-23 06:33:00,52.3,27.5,29.83,ESE,107,5.8,5.8,38,0.00,,,0.00,WeatherCatV1.12B45,2013-02-23 12:33:00,
2013-02-23 06:38:00,52.2,27.3,29.83,NNE,27,4.9,5.4,38,0.00,,,0.00,WeatherCatV1.12B45,2013-02-23 12:38:00,
2013-02-23 06:43:00,52.2,27.3,29.83,NNW,346,5.4,6.3,38,0.00,,,0.00,WeatherCatV1.12B45,2013-02-23 12:43:00,
2013-02-23 06:48:00,52.0,27.2,29.83,NE,35,0.0,0.0,38,0.00,,,0.00,WeatherCatV1.12B45,2013-02-23 12:48:00,
2013-02-23 06:53:00,51.8,27.0,29.83,NW,317,0.0,5.4,38,0.00,,,0.00,WeatherCatV1.12B45,2013-02-23 12:53:00,
2013-02-23 06:58:00,51.8,27.0,29.85,North,0,5.8,5.8,38,0.00,,,0.00,WeatherCatV1.12B45,2013-02-23 12:58:00,
2013-02-23 07:03:00,51.6,27.5,29.85,NNE,13,5.4,8.1,39,0.00,,,0.00,WeatherCatV1.12B45,2013-02-23 13:03:00,
2013-02-23 07:08:00,51.6,27.5,29.85,North,3,2.7,6.3,39,0.00,,,0.00,WeatherCatV1.12B45,2013-02-23 13:08:00,
2013-02-23 07:13:00,51.6,28.1,29.85,NNE,28,4.0,4.9,40,0.00,,,0.00,WeatherCatV1.12B45,2013-02-23 13:13:00,
2013-02-23 07:18:00,51.4,27.9,29.85,NNE,12,5.4,5.4,40,0.00,,,0.00,WeatherCatV1.12B45,2013-02-23 13:18:00,
2013-02-23 07:23:00,51.3,27.8,29.85,North,1,4.0,7.6,40,0.00,,,0.00,WeatherCatV1.12B45,2013-02-23 13:23:00,
2013-02-23 07:28:00,51.3,27.8,29.83,NNE,21,2.7,5.4,40,0.00,,,0.00,WeatherCatV1.12B45,2013-02-23 13:28:00,
2013-02-23 07:32:00,51.3,28.4,29.83,NNE,15,3.6,8.7,41,0.00,,,0.00,WeatherCatV1.12B45,2013-02-23 13:32:00,
2013-02-23 07:37:00,51.3,28.4,29.83,NW,325,0.0,4.9,41,0.00,,,0.00,WeatherCatV1.12B45,2013-02-23 13:37:00,
2013-02-23 07:42:00,51.4,28.5,29.83,North,0,2.2,3.6,41,0.00,,,0.00,WeatherCatV1.12B45,2013-02-23 13:42:00,
2013-02-23 07:47:00,51.6,28.7,29.83,NNW,338,2.2,4.9,41,0.00,,,0.00,WeatherCatV1.12B45,2013-02-23 13:47:00,
2013-02-23 07:52:00,51.8,28.9,29.83,North,0,5.4,7.2,41,0.00,,,0.00,WeatherCatV1.12B45,2013-02-23 13:52:00,
2013-02-23 07:57:00,51.8,28.3,29.83,North,11,3.6,6.3,40,0.00,,,0.00,WeatherCatV1.12B45,2013-02-23 13:57:00,
2013-02-23 08:02:00,51.8,28.3,29.85,NNE,23,0.0,3.6,40,0.00,,,0.00,WeatherCatV1.12B45,2013-02-23 14:02:00,
2013-02-23 08:07:00,51.6,28.1,29.85,North,3,2.7,5.4,40,0.00,,,0.00,WeatherCatV1.12B45,2013-02-23 14:07:00,
2013-02-23 08:12:00,51.6,28.1,29.85,ENE,64,0.0,0.0,40,0.00,,,0.00,WeatherCatV1.12B45,2013-02-23 14:12:00,
2013-02-23 08:17:00,51.6,28.1,29.85,North,357,0.0,2.2,40,0.00,,,0.00,WeatherCatV1.12B45,2013-02-23 14:17:00,
2013-02-23 08:22:00,52.0,28.4,29.85,NNW,336,0.0,3.1,40,0.00,,,0.00,WeatherCatV1.12B45,2013-02-23 14:22:00,
2013-02-23 08:27:00,52.5,28.9,29.85,North,1,0.0,4.0,40,0.00,,,0.00,WeatherCatV1.12B45,2013-02-23 14:27:00,
2013-02-23 08:32:00,53.1,28.8,29.85,North,0,3.1,6.3,39,0.00,,,0.00,WeatherCatV1.12B45,2013-02-23 14:32:00,
2013-02-23 08:37:00,53.8,28.8,29.85,North,0,0.0,5.4,38,0.00,,,0.00,WeatherCatV1.12B45,2013-02-23 14:37:00,
2013-02-23 08:42:00,54.1,28.4,29.85,NNE,18,3.6,3.6,37,0.00,,,0.00,WeatherCatV1.12B45,2013-02-23 14:42:00,
2013-02-23 08:47:00,54.0,27.6,29.85,North,5,4.0,4.0,36,0.00,,,0.00,WeatherCatV1.12B45,2013-02-23 14:47:00,
2013-02-23 08:52:00,54.3,27.9,29.85,NNE,16,0.0,2.2,36,0.00,,,0.00,WeatherCatV1.12B45,2013-02-23 14:52:00,
2013-02-23 08:57:00,55.0,28.6,29.85,North,1,3.6,4.9,36,0.00,,,0.00,WeatherCatV1.12B45,2013-02-23 14:57:00,
2013-02-23 09:02:00,55.9,28.7,29.85,North,2,4.5,7.6,35,0.00,,,0.00,WeatherCatV1.12B45,2013-02-23 15:02:00,
2013-02-23 09:07:00,56.3,27.6,29.85,NNE,13,3.6,6.3,33,0.00,,,0.00,WeatherCatV1.12B45,2013-02-23 15:07:00,
2013-02-23 09:13:00,56.5,25.4,29.85,North,9,4.0,4.0,30,0.00,,,0.00,WeatherCatV1.12B45,2013-02-23 15:13:00,
2013-02-23 09:18:00,56.7,25.6,29.85,NW,321,3.1,5.8,30,0.00,,,0.00,WeatherCatV1.12B45,2013-02-23 15:18:00,
2013-02-23 09:23:00,56.8,25.7,29.85,NE,55,4.0,4.9,30,0.00,,,0.00,WeatherCatV1.12B45,2013-02-23 15:23:00,
2013-02-23 09:28:00,56.7,24.8,29.85,NNW,332,3.1,3.1,29,0.00,,,0.00,WeatherCatV1.12B45,2013-02-23 15:28:00,
2013-02-23 09:33:00,56.8,25.7,29.85,North,6,2.2,5.4,30,0.00,,,0.00,WeatherCatV1.12B45,2013-02-23 15:33:00,
2013-02-23 09:38:00,57.2,25.2,29.85,North,3,4.0,5.8,29,0.00,,,0.00,WeatherCatV1.12B45,2013-02-23 15:38:00,
2013-02-23 09:43:00,57.9,25.9,29.85,NW,316,4.0,5.4,29,0.00,,,0.00,WeatherCatV1.12B45,2013-02-23 15:43:00,
2013-02-23 09:48:00,58.5,25.5,29.85,NW,310,3.6,4.9,28,0.00,,,0.00,WeatherCatV1.12B45,2013-02-23 15:48:00,
2013-02-23 09:53:00,58.8,24.0,29.85,NNE,13,3.1,5.8,26,0.00,,,0.00,WeatherCatV1.12B45,2013-02-23 15:53:00,
2013-02-23 09:58:00,59.2,23.4,29.83,NNW,327,2.7,5.8,25,0.00,,,0.00,WeatherCatV1.12B45,2013-02-23 15:58:00,
2013-02-23 10:03:00,59.4,23.5,29.83,East,93,3.1,7.2,25,0.00,,,0.00,WeatherCatV1.12B45,2013-02-23 16:03:00,
2013-02-23 10:08:00,59.7,23.8,29.83,NNW,337,4.0,5.8,25,0.00,,,0.00,WeatherCatV1.12B45,2013-02-23 16:08:00,
2013-02-23 10:13:00,60.4,23.5,29.83,SE,140,3.1,4.9,24,0.00,,,0.00,WeatherCatV1.12B45,2013-02-23 16:13:00,
2013-02-23 10:18:00,60.6,21.6,29.83,NNE,26,5.4,8.3,22,0.00,,,0.00,WeatherCatV1.12B45,2013-02-23 16:18:00,
2013-02-23 10:23:00,61.0,20.8,29.83,North,6,5.4,7.2,21,0.00,,,0.00,WeatherCatV1.12B45,2013-02-23 16:23:00,
2013-02-23 10:28:00,61.9,21.5,29.83,North,357,2.2,6.7,21,0.00,,,0.00,WeatherCatV1.12B45,2013-02-23 16:28:00,
2013-02-23 10:33:00,63.0,18.8,29.83,North,4,3.6,3.6,18,0.00,,,0.00,WeatherCatV1.12B45,2013-02-23 16:33:00,
2013-02-23 10:38:00,63.9,16.8,29.83,NW,307,5.4,7.6,16,0.00,,,0.00,WeatherCatV1.12B45,2013-02-23 16:38:00,
2013-02-23 10:43:00,64.2,17.1,29.83,NNW,337,8.3,8.3,16,0.00,,,0.00,WeatherCatV1.12B45,2013-02-23 16:43:00,
2013-02-23 10:48:00,64.9,16.2,29.83,NNE,29,3.6,5.8,15,0.00,,,0.00,WeatherCatV1.12B45,2013-02-23 16:48:00,
2013-02-23 10:53:00,65.7,16.8,29.83,NW,319,2.7,5.8,15,0.00,,,0.00,WeatherCatV1.12B45,2013-02-23 16:53:00,
2013-02-23 10:58:00,66.2,17.2,29.83,NW,304,2.2,6.3,15,0.00,,,0.00,WeatherCatV1.12B45,2013-02-23 16:58:00,
2013-02-23 11:03:00,65.8,13.6,29.83,WNW,299,0.0,5.8,13,0.00,,,0.00,WeatherCatV1.12B45,2013-02-23 17:03:00,
2013-02-23 11:08:00,65.5,16.6,29.83,NNW,330,6.3,6.3,15,0.00,,,0.00,WeatherCatV1.12B45,2013-02-23 17:08:00,
2013-02-23 11:13:00,66.0,17.1,29.83,WNW,284,2.2,5.8,15,0.00,,,0.00,WeatherCatV1.12B45,2013-02-23 17:13:00,
2013-02-23 11:18:00,66.7,17.6,29.83,North,9,5.4,5.8,15,0.00,,,0.00,WeatherCatV1.12B45,2013-02-23 17:18:00,
2013-02-23 11:23:00,67.6,18.3,29.83,NNE,13,2.2,3.1,15,0.00,,,0.00,WeatherCatV1.12B45,2013-02-23 17:23:00,
2013-02-23 11:28:00,68.7,19.2,29.83,NW,324,3.6,4.0,15,0.00,,,0.00,WeatherCatV1.12B45,2013-02-23 17:28:00,
2013-02-23 11:33:00,70.0,15.1,29.83,NW,318,2.7,4.9,12,0.00,,,0.00,WeatherCatV1.12B45,2013-02-23 17:33:00,
2013-02-23 11:38:00,70.7,15.6,29.83,North,353,3.1,3.6,12,0.00,,,0.00,WeatherCatV1.12B45,2013-02-23 17:38:00,
2013-02-23 11:43:00,71.1,15.9,29.83,NW,310,0.0,0.0,12,0.00,,,0.00,WeatherCatV1.12B45,2013-02-23 17:43:00,
2013-02-23 11:48:00,70.3,15.3,29.85,NE,43,0.0,0.0,12,0.00,,,0.00,WeatherCatV1.12B45,2013-02-23 17:48:00,
2013-02-23 11:53:00,70.7,15.6,29.85,East,85,3.1,4.0,12,0.00,,,0.00,WeatherCatV1.12B45,2013-02-23 17:53:00,
2013-02-23 11:58:00,70.7,15.6,29.85,NNE,33,0.0,4.0,12,0.00,,,0.00,WeatherCatV1.12B45,2013-02-23 17:58:00,
2013-02-23 12:03:00,70.0,15.1,29.83,East,99,0.0,3.1,12,0.00,,,0.00,WeatherCatV1.12B45,2013-02-23 18:03:00,
2013-02-23 12:08:00,68.9,14.2,29.83,ESE,122,0.0,2.7,12,0.00,,,0.00,WeatherCatV1.12B45,2013-02-23 18:08:00,
2013-02-23 12:13:00,68.5,13.9,29.83,SSE,151,0.0,0.0,12,0.00,,,0.00,WeatherCatV1.12B45,2013-02-23 18:13:00,
2013-02-23 12:18:00,69.4,14.6,29.83,SSW,198,0.0,0.0,12,0.00,,,0.00,WeatherCatV1.12B45,2013-02-23 18:18:00,
2013-02-23 12:23:00,70.2,15.2,29.83,North,0,0.0,0.0,12,0.00,,,0.00,WeatherCatV1.12B45,2013-02-23 18:23:00,
2013-02-23 12:28:00,70.5,15.5,29.83,ESE,103,2.2,3.6,12,0.00,,,0.00,WeatherCatV1.12B45,2013-02-23 18:28:00,
2013-02-23 12:33:00,70.0,15.1,29.83,East,86,0.0,0.0,12,0.00,,,0.00,WeatherCatV1.12B45,2013-02-23 18:33:00,
2013-02-23 12:38:00,70.2,15.2,29.83,SSW,201,0.0,0.0,12,0.00,,,0.00,WeatherCatV1.12B45,2013-02-23 18:38:00,
2013-02-23 12:43:00,71.4,16.2,29.83,SSW,199,3.6,3.6,12,0.00,,,0.00,WeatherCatV1.12B45,2013-02-23 18:43:00,
2013-02-23 12:48:00,72.5,15.0,29.83,South,179,2.7,3.6,11,0.00,,,0.00,WeatherCatV1.12B45,2013-02-23 18:48:00,
2013-02-23 12:53:00,72.7,15.2,29.83,NE,49,0.0,0.0,11,0.00,,,0.00,WeatherCatV1.12B45,2013-02-23 18:53:00,
2013-02-23 12:58:00,72.7,15.2,29.83,SE,139,0.0,0.0,11,0.00,,,0.00,WeatherCatV1.12B45,2013-02-23 18:58:00,
2013-02-23 13:03:00,72.9,15.3,29.83,East,88,0.0,4.0,11,0.00,,,0.00,WeatherCatV1.12B45,2013-02-23 19:03:00,
2013-02-23 13:08:00,74.8,16.8,29.83,ENE,62,0.0,0.0,11,0.00,,,0.00,WeatherCatV1.12B45,2013-02-23 19:08:00,
2013-02-23 13:13:00,75.7,15.3,29.83,SSE,153,0.0,0.0,10,0.00,,,0.00,WeatherCatV1.12B45,2013-02-23 19:13:00,
2013-02-23 13:18:00,75.7,15.3,29.83,SSE,156,0.0,4.9,10,0.00,,,0.00,WeatherCatV1.12B45,2013-02-23 19:18:00,
2013-02-23 13:23:00,75.2,14.9,29.83,WSW,245,0.0,0.0,10,0.00,,,0.00,WeatherCatV1.12B45,2013-02-23 19:23:00,
2013-02-23 13:28:00,74.3,16.4,29.83,South,171,0.0,0.0,11,0.00,,,0.00,WeatherCatV1.12B45,2013-02-23 19:28:00,
2013-02-23 13:33:00,73.2,15.6,29.80,WSW,245,2.7,2.7,11,0.00,,,0.00,WeatherCatV1.12B45,2013-02-23 19:33:00,
2013-02-23 13:38:00,73.2,15.6,29.80,NNE,28,0.0,0.0,11,0.00,,,0.00,WeatherCatV1.12B45,2013-02-23 19:38:00,
2013-02-23 13:43:00,74.1,16.3,29.80,NW,326,0.0,5.4,11,0.00,,,0.00,WeatherCatV1.12B45,2013-02-23 19:43:00,
2013-02-23 13:48:00,74.5,16.5,29.80,NNE,18,0.0,0.0,11,0.00,,,0.00,WeatherCatV1.12B45,2013-02-23 19:48:00,
2013-02-23 13:53:00,73.8,16.0,29.80,North,10,0.0,2.2,11,0.00,,,0.00,WeatherCatV1.12B45,2013-02-23 19:53:00,
2013-02-23 13:58:00,73.2,15.6,29.77,NNW,346,0.0,0.0,11,0.00,,,0.00,WeatherCatV1.12B45,2013-02-23 19:58:00,
2013-02-23 14:03:00,73.4,15.7,29.77,NW,323,2.7,2.7,11,0.00,,,0.00,WeatherCatV1.12B45,2013-02-23 20:03:00,
2013-02-23 14:08:00,73.8,16.0,29.77,NNW,335,4.0,4.0,11,0.00,,,0.00,WeatherCatV1.12B45,2013-02-23 20:08:00,
2013-02-23 14:13:00,73.8,16.0,29.77,NNW,330,0.0,0.0,11,0.00,,,0.00,WeatherCatV1.12B45,2013-02-23 20:13:00,
2013-02-23 14:18:00,73.4,15.7,29.77,WNW,299,0.0,5.4,11,0.00,,,0.00,WeatherCatV1.12B45,2013-02-23 20:18:00,
2013-02-23 14:23:00,73.2,15.6,29.77,NW,314,0.0,4.9,11,0.00,,,0.00,WeatherCatV1.12B45,2013-02-23 20:23:00,
2013-02-23 14:28:00,73.2,15.6,29.80,West,281,0.0,4.0,11,0.00,,,0.00,WeatherCatV1.12B45,2013-02-23 20:28:00,
2013-02-23 14:33:00,72.9,15.3,29.80,NW,317,0.0,2.7,11,0.00,,,0.00,WeatherCatV1.12B45,2013-02-23 20:33:00,
2013-02-23 14:38:00,72.9,15.3,29.80,West,260,0.0,0.0,11,0.00,,,0.00,WeatherCatV1.12B45,2013-02-23 20:38:00,
2013-02-23 14:43:00,73.0,15.4,29.77,NW,321,2.7,2.7,11,0.00,,,0.00,WeatherCatV1.12B45,2013-02-23 20:43:00,
2013-02-23 14:48:00,73.0,15.4,29.77,WNW,290,0.0,0.0,11,0.00,,,0.00,WeatherCatV1.12B45,2013-02-23 20:48:00,
2013-02-23 14:53:00,73.2,15.6,29.77,NNW,334,2.7,4.0,11,0.00,,,0.00,WeatherCatV1.12B45,2013-02-23 20:53:00,
2013-02-23 14:58:00,72.9,15.3,29.77,WSW,244,3.1,3.1,11,0.00,,,0.00,WeatherCatV1.12B45,2013-02-23 20:58:00,
2013-02-23 15:03:00,72.3,14.9,29.77,WNW,289,0.0,3.1,11,0.00,,,0.00,WeatherCatV1.12B45,2013-02-23 21:03:00,
2013-02-23 15:08:00,72.0,14.6,29.77,West,271,0.0,4.5,11,0.00,,,0.00,WeatherCatV1.12B45,2013-02-23 21:08:00,
2013-02-23 15:13:00,72.5,15.0,29.77,WNW,293,0.0,3.6,11,0.00,,,0.00,WeatherCatV1.12B45,2013-02-23 21:13:00,
2013-02-23 15:18:00,72.5,15.0,29.77,NNE,32,0.0,0.0,11,0.00,,,0.00,WeatherCatV1.12B45,2013-02-23 21:18:00,
2013-02-23 15:23:00,72.3,14.9,29.77,NNW,341,0.0,0.0,11,0.00,,,0.00,WeatherCatV1.12B45,2013-02-23 21:23:00,
2013-02-23 15:28:00,73.4,15.7,29.77,North,357,2.7,2.7,11,0.00,,,0.00,WeatherCatV1.12B45,2013-02-23 21:28:00,
2013-02-23 15:33:00,73.8,16.0,29.77,NNW,343,0.0,5.4,11,0.00,,,0.00,WeatherCatV1.12B45,2013-02-23 21:33:00,
2013-02-23 15:38:00,72.1,14.7,29.77,WNW,297,0.0,3.1,11,0.00,,,0.00,WeatherCatV1.12B45,2013-02-23 21:38:00,
2013-02-23 15:43:00,71.2,16.0,29.77,WNW,287,3.1,4.0,12,0.00,,,0.00,WeatherCatV1.12B45,2013-02-23 21:43:00,
2013-02-23 15:48:00,70.7,15.6,29.77,North,8,0.0,0.0,12,0.00,,,0.00,WeatherCatV1.12B45,2013-02-23 21:48:00,
2013-02-23 15:53:00,70.5,15.5,29.77,NW,322,3.1,5.4,12,0.00,,,0.00,WeatherCatV1.12B45,2013-02-23 21:53:00,
2013-02-23 15:58:00,70.5,15.5,29.77,West,266,0.0,0.0,12,0.00,,,0.00,WeatherCatV1.12B45,2013-02-23 21:58:00,
2013-02-23 16:03:00,70.3,15.3,29.77,WNW,302,0.0,3.6,12,0.00,,,0.00,WeatherCatV1.12B45,2013-02-23 22:03:00,
2013-02-23 16:08:00,70.3,15.3,29.77,NNW,339,0.0,0.0,12,0.00,,,0.00,WeatherCatV1.12B45,2013-02-23 22:08:00,
2013-02-23 16:13:00,70.7,15.6,29.77,North,350,0.0,3.1,12,0.00,,,0.00,WeatherCatV1.12B45,2013-02-23 22:13:00,
2013-02-23 16:18:00,70.7,15.6,29.77,WNW,291,0.0,3.6,12,0.00,,,0.00,WeatherCatV1.12B45,2013-02-23 22:18:00,
2013-02-23 16:23:00,70.5,15.5,29.77,NW,317,0.0,4.9,12,0.00,,,0.00,WeatherCatV1.12B45,2013-02-23 22:23:00,
2013-02-23 16:28:00,70.7,15.6,29.77,NW,324,0.0,0.0,12,0.00,,,0.00,WeatherCatV1.12B45,2013-02-23 22:28:00,
2013-02-23 16:33:00,70.2,15.2,29.77,NE,42,0.0,0.0,12,0.00,,,0.00,WeatherCatV1.12B45,2013-02-23 22:33:00,
2013-02-23 16:38:00,69.6,14.8,29.77,North,357,0.0,0.0,12,0.00,,,0.00,WeatherCatV1.12B45,2013-02-23 22:38:00,
2013-02-23 16:43:00,69.4,14.6,29.74,NNW,340,0.0,0.0,12,0.00,,,0.00,WeatherCatV1.12B45,2013-02-23 22:43:00,
2013-02-23 16:48:00,69.3,14.5,29.74,NNW,340,0.0,0.0,12,0.00,,,0.00,WeatherCatV1.12B45,2013-02-23 22:48:00,
2013-02-23 16:53:00,68.9,14.2,29.74,NNW,339,0.0,0.0,12,0.00,,,0.00,WeatherCatV1.12B45,2013-02-23 22:53:00,
2013-02-23 16:58:00,69.1,14.4,29.77,NNW,328,0.0,0.0,12,0.00,,,0.00,WeatherCatV1.12B45,2013-02-23 22:58:00,
2013-02-23 17:03:00,68.9,14.2,29.77,East,85,2.2,2.2,12,0.00,,,0.00,WeatherCatV1.12B45,2013-02-23 23:03:00,
2013-02-23 17:08:00,68.4,18.9,29.77,NE,50,0.0,0.0,15,0.00,,,0.00,WeatherCatV1.12B45,2013-02-23 23:08:00,
2013-02-23 17:13:00,67.8,18.5,29.77,ENE,70,0.0,0.0,15,0.00,,,0.00,WeatherCatV1.12B45,2013-02-23 23:13:00,
2013-02-23 17:18:00,67.1,17.9,29.77,East,85,0.0,0.0,15,0.00,,,0.00,WeatherCatV1.12B45,2013-02-23 23:18:00,
2013-02-23 17:23:00,66.6,17.5,29.77,East,79,0.0,0.0,15,0.00,,,0.00,WeatherCatV1.12B45,2013-02-23 23:23:00,
2013-02-23 17:28:00,66.2,20.1,29.74,SE,127,0.0,0.0,17,0.00,,,0.00,WeatherCatV1.12B45,2013-02-23 23:28:00,
2013-02-23 17:33:00,66.0,21.3,29.74,East,92,0.0,0.0,18,0.00,,,0.00,WeatherCatV1.12B45,2013-02-23 23:33:00,
2013-02-23 17:38:00,66.0,21.3,29.74,East,88,0.0,0.0,18,0.00,,,0.00,WeatherCatV1.12B45,2013-02-23 23:38:00,
2013-02-23 17:43:00,65.5,20.9,29.74,East,88,0.0,0.0,18,0.00,,,0.00,WeatherCatV1.12B45,2013-02-23 23:43:00,
2013-02-23 17:48:00,64.9,20.4,29.74,East,88,0.0,0.0,18,0.00,,,0.00,WeatherCatV1.12B45,2013-02-23 23:48:00,
2013-02-23 17:53:00,64.4,22.5,29.74,East,88,0.0,0.0,20,0.00,,,0.00,WeatherCatV1.12B45,2013-02-23 23:53:00,
2013-02-23 17:58:00,64.0,23.3,29.77,East,88,0.0,0.0,21,0.00,,,0.00,WeatherCatV1.12B45,2013-02-23 23:58:00,
2013-02-23 18:03:00,63.7,25.2,29.77,East,88,0.0,0.0,23,0.00,,,0.00,WeatherCatV1.12B45,2013-02-24 00:03:00,
2013-02-23 18:08:00,63.3,24.9,29.77,East,88,0.0,0.0,23,0.00,,,0.00,WeatherCatV1.12B45,2013-02-24 00:08:00,
2013-02-23 18:13:00,63.0,25.6,29.77,East,88,0.0,0.0,24,0.00,,,0.00,WeatherCatV1.12B45,2013-02-24 00:13:00,
2013-02-23 18:18:00,62.4,25.2,29.77,East,88,0.0,0.0,24,0.00,,,0.00,WeatherCatV1.12B45,2013-02-24 00:18:00,
2013-02-23 18:23:00,61.9,24.7,29.77,East,88,0.0,0.0,24,0.00,,,0.00,WeatherCatV1.12B45,2013-02-24 00:23:00,
2013-02-23 18:28:00,61.5,25.4,29.77,East,88,0.0,0.0,25,0.00,,,0.00,WeatherCatV1.12B45,2013-02-24 00:28:00,
2013-02-23 18:33:00,61.0,24.9,29.77,East,88,0.0,0.0,25,0.00,,,0.00,WeatherCatV1.12B45,2013-02-24 00:33:00,
2013-02-23 18:38:00,60.4,25.4,29.77,East,88,0.0,0.0,26,0.00,,,0.00,WeatherCatV1.12B45,2013-02-24 00:38:00,
2013-02-23 18:43:00,60.3,26.2,29.77,East,88,0.0,0.0,27,0.00,,,0.00,WeatherCatV1.12B45,2013-02-24 00:43:00,
2013-02-23 18:48:00,59.9,25.8,29.77,East,88,0.0,0.0,27,0.00,,,0.00,WeatherCatV1.12B45,2013-02-24 00:48:00,
2013-02-23 18:53:00,59.4,26.3,29.77,East,88,0.0,0.0,28,0.00,,,0.00,WeatherCatV1.12B45,2013-02-24 00:53:00,
2013-02-23 18:58:00,59.2,26.9,29.77,East,88,0.0,0.0,29,0.00,,,0.00,WeatherCatV1.12B45,2013-02-24 00:58:00,
2013-02-23 19:03:00,59.0,27.6,29.77,East,88,0.0,0.0,30,0.00,,,0.00,WeatherCatV1.12B45,2013-02-24 01:03:00,
2013-02-23 19:08:00,58.5,28.7,29.77,East,88,0.0,0.0,32,0.00,,,0.00,WeatherCatV1.12B45,2013-02-24 01:08:00,
2013-02-23 19:13:00,58.1,29.2,29.77,East,88,0.0,0.0,33,0.00,,,0.00,WeatherCatV1.12B45,2013-02-24 01:13:00,
2013-02-23 19:18:00,57.9,30.4,29.77,East,88,0.0,0.0,35,0.00,,,0.00,WeatherCatV1.12B45,2013-02-24 01:18:00,
2013-02-23 19:23:00,57.6,30.1,29.77,East,88,0.0,0.0,35,0.00,,,0.00,WeatherCatV1.12B45,2013-02-24 01:23:00,
2013-02-23 19:28:00,57.4,30.0,29.77,East,88,0.0,0.0,35,0.00,,,0.00,WeatherCatV1.12B45,2013-02-24 01:28:00,
2013-02-23 19:33:00,57.0,30.3,29.77,East,88,0.0,0.0,36,0.00,,,0.00,WeatherCatV1.12B45,2013-02-24 01:33:00,
2013-02-23 19:38:00,57.0,31.0,29.77,East,88,0.0,0.0,37,0.00,,,0.00,WeatherCatV1.12B45,2013-02-24 01:38:00,
2013-02-23 19:43:00,56.5,30.5,29.77,East,88,0.0,0.0,37,0.00,,,0.00,WeatherCatV1.12B45,2013-02-24 01:43:00,
2013-02-23 19:48:00,56.3,31.0,29.77,East,88,0.0,0.0,38,0.00,,,0.00,WeatherCatV1.12B45,2013-02-24 01:48:00,
2013-02-23 19:53:00,55.9,30.7,29.77,East,88,0.0,0.0,38,0.00,,,0.00,WeatherCatV1.12B45,2013-02-24 01:53:00,
2013-02-23 19:58:00,55.8,31.2,29.80,East,88,0.0,0.0,39,0.00,,,0.00,WeatherCatV1.12B45,2013-02-24 01:58:00,
2013-02-23 20:03:00,55.6,31.0,29.80,East,88,0.0,0.0,39,0.00,,,0.00,WeatherCatV1.12B45,2013-02-24 02:03:00,
2013-02-23 20:08:00,55.4,31.5,29.80,East,88,0.0,0.0,40,0.00,,,0.00,WeatherCatV1.12B45,2013-02-24 02:08:00,
2013-02-23 20:13:00,55.2,31.9,29.80,East,88,0.0,0.0,41,0.00,,,0.00,WeatherCatV1.12B45,2013-02-24 02:13:00,
2013-02-23 20:18:00,55.2,32.5,29.80,East,88,0.0,0.0,42,0.00,,,0.00,WeatherCatV1.12B45,2013-02-24 02:18:00,
2013-02-23 20:23:00,55.2,33.1,29.80,East,88,0.0,0.0,43,0.00,,,0.00,WeatherCatV1.12B45,2013-02-24 02:23:00,
2013-02-23 20:28:00,55.4,33.3,29.80,East,88,0.0,0.0,43,0.00,,,0.00,WeatherCatV1.12B45,2013-02-24 02:28:00,
2013-02-23 20:33:00,55.2,33.7,29.80,East,88,0.0,0.0,44,0.00,,,0.00,WeatherCatV1.12B45,2013-02-24 02:33:00,
2013-02-23 20:38:00,54.9,33.4,29.80,East,88,0.0,0.0,44,0.00,,,0.00,WeatherCatV1.12B45,2013-02-24 02:38:00,
2013-02-23 20:43:00,54.7,33.8,29.80,East,88,0.0,0.0,45,0.00,,,0.00,WeatherCatV1.12B45,2013-02-24 02:43:00,
2013-02-23 20:48:00,54.9,34.5,29.80,East,88,0.0,0.0,46,0.00,,,0.00,WeatherCatV1.12B45,2013-02-24 02:48:00,
2013-02-23 20:53:00,54.7,34.3,29.80,East,88,0.0,0.0,46,0.00,,,0.00,WeatherCatV1.12B45,2013-02-24 02:53:00,
2013-02-23 20:58:00,54.7,34.9,29.80,North,11,0.0,0.0,47,0.00,,,0.00,WeatherCatV1.12B45,2013-02-24 02:58:00,
2013-02-23 21:03:00,54.5,35.2,29.80,NW,324,0.0,0.0,48,0.00,,,0.00,WeatherCatV1.12B45,2013-02-24 03:03:00,
2013-02-23 21:08:00,54.5,35.7,29.80,NW,324,0.0,0.0,49,0.00,,,0.00,WeatherCatV1.12B45,2013-02-24 03:08:00,
2013-02-23 21:13:00,54.5,35.7,29.80,NW,324,0.0,0.0,49,0.00,,,0.00,WeatherCatV1.12B45,2013-02-24 03:13:00,
2013-02-23 21:18:00,54.3,36.1,29.80,NW,324,0.0,0.0,50,0.00,,,0.00,WeatherCatV1.12B45,2013-02-24 03:18:00,
2013-02-23 21:23:00,54.0,35.2,29.80,NW,324,0.0,0.0,49,0.00,,,0.00,WeatherCatV1.12B45,2013-02-24 03:23:00,
2013-02-23 21:28:00,53.2,35.1,29.80,NW,324,0.0,0.0,50,0.00,,,0.00,WeatherCatV1.12B45,2013-02-24 03:28:00,
2013-02-23 21:33:00,53.1,34.9,29.80,NW,324,0.0,0.0,50,0.00,,,0.00,WeatherCatV1.12B45,2013-02-24 03:33:00,
2013-02-23 21:38:00,52.7,34.6,29.80,NW,324,0.0,0.0,50,0.00,,,0.00,WeatherCatV1.12B45,2013-02-24 03:38:00,
2013-02-23 21:43:00,52.5,34.9,29.80,NW,324,0.0,0.0,51,0.00,,,0.00,WeatherCatV1.12B45,2013-02-24 03:43:00,
2013-02-23 21:48:00,52.2,34.6,29.80,NW,324,0.0,0.0,51,0.00,,,0.00,WeatherCatV1.12B45,2013-02-24 03:48:00,
2013-02-23 21:53:00,51.8,34.3,29.80,NW,324,0.0,0.0,51,0.00,,,0.00,WeatherCatV1.12B45,2013-02-24 03:53:00,
2013-02-23 21:58:00,51.8,34.7,29.80,NW,324,0.0,0.0,52,0.00,,,0.00,WeatherCatV1.12B45,2013-02-24 03:58:00,
2013-02-23 22:03:00,51.6,34.6,29.80,NW,324,0.0,0.0,52,0.00,,,0.00,WeatherCatV1.12B45,2013-02-24 04:03:00,
2013-02-23 22:08:00,51.6,35.1,29.80,NW,324,0.0,0.0,53,0.00,,,0.00,WeatherCatV1.12B45,2013-02-24 04:08:00,
2013-02-23 22:13:00,51.4,34.9,29.83,NW,324,0.0,0.0,53,0.00,,,0.00,WeatherCatV1.12B45,2013-02-24 04:13:00,
2013-02-23 22:18:00,51.3,34.7,29.83,NW,324,0.0,0.0,53,0.00,,,0.00,WeatherCatV1.12B45,2013-02-24 04:18:00,
2013-02-23 22:23:00,51.1,34.6,29.83,NW,324,0.0,0.0,53,0.00,,,0.00,WeatherCatV1.12B45,2013-02-24 04:23:00,
2013-02-23 22:28:00,51.1,35.0,29.83,NW,324,0.0,0.0,54,0.00,,,0.00,WeatherCatV1.12B45,2013-02-24 04:28:00,
2013-02-23 22:33:00,51.1,35.5,29.83,NW,324,0.0,0.0,55,0.00,,,0.00,WeatherCatV1.12B45,2013-02-24 04:33:00,
2013-02-23 22:38:00,50.9,35.3,29.83,NW,324,0.0,0.0,55,0.00,,,0.00,WeatherCatV1.12B45,2013-02-24 04:38:00,
2013-02-23 22:43:00,50.5,35.0,29.83,NW,324,0.0,0.0,55,0.00,,,0.00,WeatherCatV1.12B45,2013-02-24 04:43:00,
2013-02-23 22:48:00,50.5,35.0,29.83,NW,324,0.0,0.0,55,0.00,,,0.00,WeatherCatV1.12B45,2013-02-24 04:48:00,
2013-02-23 22:53:00,50.2,34.6,29.83,NW,324,0.0,0.0,55,0.00,,,0.00,WeatherCatV1.12B45,2013-02-24 04:53:00,
2013-02-23 22:58:00,50.0,34.9,29.80,NW,324,0.0,0.0,56,0.00,,,0.00,WeatherCatV1.12B45,2013-02-24 04:58:00,
2013-02-23 23:00:00,50.0,34.9,29.80,NW,324,0.0,0.0,56,0.00,,,0.00,WeatherCatV1.12B45,2013-02-24 05:00:00,
2013-02-23 23:05:00,49.8,34.8,29.80,NW,324,0.0,0.0,56,0.00,,,0.00,WeatherCatV1.12B45,2013-02-24 05:05:00,
2013-02-23 23:10:00,49.6,35.0,29.80,NW,324,0.0,0.0,57,0.00,,,0.00,WeatherCatV1.12B45,2013-02-24 05:10:00,
2013-02-23 23:15:00,49.6,35.0,29.83,NW,324,0.0,0.0,57,0.00,,,0.00,WeatherCatV1.12B45,2013-02-24 05:15:00,
2013-02-23 23:20:00,49.5,34.9,29.83,NW,324,0.0,0.0,57,0.00,,,0.00,WeatherCatV1.12B45,2013-02-24 05:20:00,
2013-02-23 23:25:00,49.3,35.1,29.83,NW,324,0.0,0.0,58,0.00,,,0.00,WeatherCatV1.12B45,2013-02-24 05:25:00,
2013-02-23 23:30:00,49.3,35.1,29.83,NW,324,0.0,0.0,58,0.00,,,0.00,WeatherCatV1.12B45,2013-02-24 05:30:00,
2013-02-23 23:35:00,49.5,35.7,29.83,NW,324,0.0,0.0,59,0.00,,,0.00,WeatherCatV1.12B45,2013-02-24 05:35:00,
2013-02-23 23:40:00,49.3,35.6,29.83,NW,324,0.0,0.0,59,0.00,,,0.00,WeatherCatV1.12B45,2013-02-24 05:40:00,
2013-02-23 23:45:00,48.9,34.8,29.80,NW,324,0.0,0.0,58,0.00,,,0.00,WeatherCatV1.12B45,2013-02-24 05:45:00,
2013-02-23 23:50:00,48.7,35.1,29.80,NW,324,0.0,0.0,59,0.00,,,0.00,WeatherCatV1.12B45,2013-02-24 05:50:00,
2013-02-23 23:55:00,48.6,34.9,29.80,NW,324,0.0,0.0,59,0.00,,,0.00,WeatherCatV1.12B45,2013-02-24 05:55:00,